Year,Month,Day,Hour,Minute,Value (Times are PST for windgust in km/hr)
2015,12,05,00,03,3.20
2015,12,05,00,04,1.60
2015,12,05,00,07,1.60
2015,12,05,00,08,1.60
2015,12,05,00,17,1.60
2015,12,05,00,21,1.60
2015,12,05,00,27,1.60
2015,12,05,00,28,1.60
2015,12,05,00,29,1.60
2015,12,05,00,30,1.60
2015,12,05,00,31,1.60
2015,12,05,00,32,3.20
2015,12,05,00,33,1.60
2015,12,05,00,36,3.20
2015,12,05,00,37,1.60
2015,12,05,00,38,1.60
2015,12,05,00,39,1.60
2015,12,05,00,40,1.60
2015,12,05,00,41,1.60
2015,12,05,00,42,1.60
2015,12,05,00,43,1.60
2015,12,05,00,44,3.20
2015,12,05,00,45,3.20
2015,12,05,00,46,3.20
2015,12,05,00,47,3.20
2015,12,05,00,48,1.60
2015,12,05,00,49,1.60
2015,12,05,00,51,1.60
2015,12,05,00,52,3.20
2015,12,05,00,53,3.20
2015,12,05,00,54,3.20
2015,12,05,00,55,3.20
2015,12,05,00,56,3.20
2015,12,05,00,57,1.60
2015,12,05,00,59,3.20
2015,12,05,01,00,1.60
2015,12,05,01,52,1.60
2015,12,05,01,53,3.20
2015,12,05,01,54,3.20
2015,12,05,01,55,1.60
2015,12,05,01,56,3.20
2015,12,05,01,57,3.20
2015,12,05,01,58,1.60
2015,12,05,01,59,1.60
2015,12,05,02,00,1.60
2015,12,05,02,06,3.20
2015,12,05,02,07,1.60
2015,12,05,02,08,1.60
2015,12,05,02,11,1.60
2015,12,05,02,12,1.60
2015,12,05,02,16,1.60
2015,12,05,02,25,1.60
2015,12,05,02,26,3.20
2015,12,05,02,28,1.60
2015,12,05,02,30,1.60
2015,12,05,02,31,1.60
2015,12,05,02,36,1.60
2015,12,05,02,38,3.20
2015,12,05,02,39,3.20
2015,12,05,02,40,1.60
2015,12,05,02,41,3.20
2015,12,05,02,42,3.20
2015,12,05,02,43,3.20
2015,12,05,02,44,1.60
2015,12,05,02,45,4.80
2015,12,05,02,46,4.80
2015,12,05,02,47,4.80
2015,12,05,02,48,4.80
2015,12,05,02,49,4.80
2015,12,05,02,50,6.40
2015,12,05,02,51,4.80
2015,12,05,02,52,4.80
2015,12,05,02,53,1.60
2015,12,05,02,54,4.80
2015,12,05,02,55,1.60
2015,12,05,02,56,1.60
2015,12,05,02,57,1.60
2015,12,05,02,58,6.40
2015,12,05,02,59,11.30
2015,12,05,03,00,12.90
2015,12,05,03,01,16.10
2015,12,05,03,02,14.50
2015,12,05,03,03,12.90
2015,12,05,03,04,14.50
2015,12,05,03,05,11.30
2015,12,05,03,06,3.20
2015,12,05,03,07,8.10
2015,12,05,03,08,11.30
2015,12,05,03,09,14.50
2015,12,05,03,10,12.90
2015,12,05,03,11,9.60
2015,12,05,03,12,11.30
2015,12,05,03,13,19.30
2015,12,05,03,14,17.70
2015,12,05,03,15,14.50
2015,12,05,03,16,17.70
2015,12,05,03,17,17.70
2015,12,05,03,18,19.30
2015,12,05,03,19,16.10
2015,12,05,03,20,24.20
2015,12,05,03,21,14.50
2015,12,05,03,22,9.60
2015,12,05,03,23,9.60
2015,12,05,03,24,14.50
2015,12,05,03,25,17.70
2015,12,05,03,26,16.10
2015,12,05,03,27,20.90
2015,12,05,03,28,14.50
2015,12,05,03,29,19.30
2015,12,05,03,30,16.10
2015,12,05,03,31,12.90
2015,12,05,03,32,17.70
2015,12,05,03,33,12.90
2015,12,05,03,34,17.70
2015,12,05,03,35,14.50
2015,12,05,03,36,17.70
2015,12,05,03,37,12.90
2015,12,05,03,38,17.70
2015,12,05,03,39,17.70
2015,12,05,03,40,24.20
2015,12,05,03,41,19.30
2015,12,05,03,42,20.90
2015,12,05,03,43,24.20
2015,12,05,03,44,17.70
2015,12,05,03,45,20.90
2015,12,05,03,46,20.90
2015,12,05,03,47,12.90
2015,12,05,03,48,17.70
2015,12,05,03,49,20.90
2015,12,05,03,50,32.20
2015,12,05,03,51,30.60
2015,12,05,03,52,20.90
2015,12,05,03,53,20.90
2015,12,05,03,54,19.30
2015,12,05,03,55,14.50
2015,12,05,03,56,30.60
2015,12,05,03,57,19.30
2015,12,05,03,58,40.20
2015,12,05,03,59,38.60
2015,12,05,04,00,40.20
2015,12,05,04,01,27.40
2015,12,05,04,02,22.50
2015,12,05,04,03,24.20
2015,12,05,04,04,25.70
2015,12,05,04,05,19.30
2015,12,05,04,06,30.60
2015,12,05,04,07,35.40
2015,12,05,04,08,27.40
2015,12,05,04,09,33.80
2015,12,05,04,10,33.80
2015,12,05,04,11,32.20
2015,12,05,04,12,20.90
2015,12,05,04,13,19.30
2015,12,05,04,14,14.50
2015,12,05,04,15,22.50
2015,12,05,04,16,27.40
2015,12,05,04,17,24.20
2015,12,05,04,18,30.60
2015,12,05,04,19,22.50
2015,12,05,04,20,37.00
2015,12,05,04,21,25.70
2015,12,05,04,22,30.60
2015,12,05,04,23,24.20
2015,12,05,04,24,22.50
2015,12,05,04,25,30.60
2015,12,05,04,26,19.30
2015,12,05,04,27,19.30
2015,12,05,04,28,19.30
2015,12,05,04,29,32.20
2015,12,05,04,30,20.90
2015,12,05,04,31,22.50
2015,12,05,04,32,25.70
2015,12,05,04,33,20.90
2015,12,05,04,34,25.70
2015,12,05,04,35,25.70
2015,12,05,04,36,20.90
2015,12,05,04,37,20.90
2015,12,05,04,38,30.60
2015,12,05,04,39,29.00
2015,12,05,04,40,20.90
2015,12,05,04,41,24.20
2015,12,05,04,42,19.30
2015,12,05,04,43,24.20
2015,12,05,04,44,27.40
2015,12,05,04,45,22.50
2015,12,05,04,46,22.50
2015,12,05,04,47,38.60
2015,12,05,04,48,30.60
2015,12,05,04,49,35.40
2015,12,05,04,50,40.20
2015,12,05,04,51,30.60
2015,12,05,04,52,22.50
2015,12,05,04,53,37.00
2015,12,05,04,54,38.60
2015,12,05,04,55,29.00
2015,12,05,04,56,25.70
2015,12,05,04,57,40.20
2015,12,05,04,58,20.90
2015,12,05,04,59,40.20
2015,12,05,05,00,54.70
2015,12,05,05,01,24.20
2015,12,05,05,02,29.00
2015,12,05,05,03,37.00
2015,12,05,05,04,35.40
2015,12,05,05,05,29.00
2015,12,05,05,06,30.60
2015,12,05,05,07,29.00
2015,12,05,05,08,30.60
2015,12,05,05,09,19.30
2015,12,05,05,10,24.20
2015,12,05,05,11,33.80
2015,12,05,05,12,32.20
2015,12,05,05,13,20.90
2015,12,05,05,14,17.70
2015,12,05,05,15,20.90
2015,12,05,05,16,14.50
2015,12,05,05,17,37.00
2015,12,05,05,18,32.20
2015,12,05,05,19,22.50
2015,12,05,05,20,27.40
2015,12,05,05,21,27.40
2015,12,05,05,22,38.60
2015,12,05,05,23,32.20
2015,12,05,05,24,27.40
2015,12,05,05,25,24.20
2015,12,05,05,26,20.90
2015,12,05,05,27,27.40
2015,12,05,05,28,37.00
2015,12,05,05,29,33.80
2015,12,05,05,30,35.40
2015,12,05,05,31,38.60
2015,12,05,05,32,32.20
2015,12,05,05,33,40.20
2015,12,05,05,34,43.50
2015,12,05,05,35,22.50
2015,12,05,05,36,30.60
2015,12,05,05,37,35.40
2015,12,05,05,38,29.00
2015,12,05,05,39,29.00
2015,12,05,05,40,27.40
2015,12,05,05,41,29.00
2015,12,05,05,42,24.20
2015,12,05,05,43,38.60
2015,12,05,05,44,30.60
2015,12,05,05,45,29.00
2015,12,05,05,46,20.90
2015,12,05,05,47,20.90
2015,12,05,05,48,41.80
2015,12,05,05,49,24.20
2015,12,05,05,50,30.60
2015,12,05,05,51,29.00
2015,12,05,05,52,17.70
2015,12,05,05,53,17.70
2015,12,05,05,54,24.20
2015,12,05,05,55,24.20
2015,12,05,05,56,30.60
2015,12,05,05,57,30.60
2015,12,05,05,58,11.30
2015,12,05,05,59,29.00
2015,12,05,06,00,14.50
2015,12,05,06,01,32.20
2015,12,05,06,02,20.90
2015,12,05,06,03,45.10
2015,12,05,06,04,41.80
2015,12,05,06,05,22.50
2015,12,05,06,06,30.60
2015,12,05,06,07,40.20
2015,12,05,06,08,29.00
2015,12,05,06,09,22.50
2015,12,05,06,10,35.40
2015,12,05,06,11,41.80
2015,12,05,06,12,37.00
2015,12,05,06,13,37.00
2015,12,05,06,14,24.20
2015,12,05,06,15,30.60
2015,12,05,06,16,14.50
2015,12,05,06,17,30.60
2015,12,05,06,18,30.60
2015,12,05,06,19,29.00
2015,12,05,06,20,27.40
2015,12,05,06,21,37.00
2015,12,05,06,22,32.20
2015,12,05,06,23,45.10
2015,12,05,06,24,30.60
2015,12,05,06,25,35.40
2015,12,05,06,26,35.40
2015,12,05,06,27,37.00
2015,12,05,06,28,27.40
2015,12,05,06,29,33.80
2015,12,05,06,30,19.30
2015,12,05,06,31,27.40
2015,12,05,06,32,22.50
2015,12,05,06,33,43.50
2015,12,05,06,34,24.20
2015,12,05,06,35,22.50
2015,12,05,06,36,35.40
2015,12,05,06,37,33.80
2015,12,05,06,38,29.00
2015,12,05,06,39,25.70
2015,12,05,06,40,32.20
2015,12,05,06,41,33.80
2015,12,05,06,42,37.00
2015,12,05,06,43,22.50
2015,12,05,06,44,35.40
2015,12,05,06,45,45.10
2015,12,05,06,46,24.20
2015,12,05,06,47,29.00
2015,12,05,06,48,27.40
2015,12,05,06,49,29.00
2015,12,05,06,50,38.60
2015,12,05,06,51,22.50
2015,12,05,06,52,33.80
2015,12,05,06,53,17.70
2015,12,05,06,54,22.50
2015,12,05,06,55,32.20
2015,12,05,06,56,29.00
2015,12,05,06,57,30.60
2015,12,05,06,58,27.40
2015,12,05,06,59,38.60
2015,12,05,07,00,38.60
2015,12,05,07,01,37.00
2015,12,05,07,02,41.80
2015,12,05,07,03,24.20
2015,12,05,07,04,37.00
2015,12,05,07,05,29.00
2015,12,05,07,06,40.20
2015,12,05,07,07,37.00
2015,12,05,07,08,38.60
2015,12,05,07,09,30.60
2015,12,05,07,10,27.40
2015,12,05,07,11,43.50
2015,12,05,07,12,38.60
2015,12,05,07,13,32.20
2015,12,05,07,14,41.80
2015,12,05,07,15,38.60
2015,12,05,07,16,24.20
2015,12,05,07,17,29.00
2015,12,05,07,18,43.50
2015,12,05,07,19,33.80
2015,12,05,07,20,33.80
2015,12,05,07,21,22.50
2015,12,05,07,22,29.00
2015,12,05,07,23,38.60
2015,12,05,07,24,30.60
2015,12,05,07,25,24.20
2015,12,05,07,26,35.40
2015,12,05,07,27,33.80
2015,12,05,07,28,45.10
2015,12,05,07,29,37.00
2015,12,05,07,30,45.10
2015,12,05,07,31,38.60
2015,12,05,07,32,30.60
2015,12,05,07,33,25.70
2015,12,05,07,34,48.30
2015,12,05,07,35,29.00
2015,12,05,07,36,40.20
2015,12,05,07,37,30.60
2015,12,05,07,38,29.00
2015,12,05,07,39,37.00
2015,12,05,07,40,24.20
2015,12,05,07,41,30.60
2015,12,05,07,42,35.40
2015,12,05,07,43,38.60
2015,12,05,07,44,32.20
2015,12,05,07,45,35.40
2015,12,05,07,46,27.40
2015,12,05,07,47,20.90
2015,12,05,07,48,29.00
2015,12,05,07,49,32.20
2015,12,05,07,50,37.00
2015,12,05,07,51,33.80
2015,12,05,07,52,30.60
2015,12,05,07,53,38.60
2015,12,05,07,54,29.00
2015,12,05,07,55,27.40
2015,12,05,07,56,32.20
2015,12,05,07,57,45.10
2015,12,05,07,58,45.10
2015,12,05,07,59,30.60
2015,12,05,08,00,11.30
2015,12,05,08,01,33.80
2015,12,05,08,02,41.80
2015,12,05,08,03,33.80
2015,12,05,08,04,37.00
2015,12,05,08,05,29.00
2015,12,05,08,06,40.20
2015,12,05,08,07,32.20
2015,12,05,08,08,51.50
2015,12,05,08,09,38.60
2015,12,05,08,10,51.50
2015,12,05,08,11,51.50
2015,12,05,08,12,37.00
2015,12,05,08,13,43.50
2015,12,05,08,14,38.60
2015,12,05,08,15,27.40
2015,12,05,08,16,37.00
2015,12,05,08,17,37.00
2015,12,05,08,18,37.00
2015,12,05,08,19,32.20
2015,12,05,08,20,38.60
2015,12,05,08,21,37.00
2015,12,05,08,22,30.60
2015,12,05,08,23,32.20
2015,12,05,08,24,30.60
2015,12,05,08,25,35.40
2015,12,05,08,26,45.10
2015,12,05,08,27,40.20
2015,12,05,08,28,33.80
2015,12,05,08,29,35.40
2015,12,05,08,30,29.00
2015,12,05,08,31,30.60
2015,12,05,08,32,41.80
2015,12,05,08,33,54.70
2015,12,05,08,34,32.20
2015,12,05,08,35,29.00
2015,12,05,08,36,30.60
2015,12,05,08,37,41.80
2015,12,05,08,38,46.70
2015,12,05,08,39,37.00
2015,12,05,08,40,43.50
2015,12,05,08,41,48.30
2015,12,05,08,42,27.40
2015,12,05,08,43,43.50
2015,12,05,08,44,41.80
2015,12,05,08,45,48.30
2015,12,05,08,46,30.60
2015,12,05,08,47,41.80
2015,12,05,08,48,48.30
2015,12,05,08,49,41.80
2015,12,05,08,50,48.30
2015,12,05,08,51,54.70
2015,12,05,08,52,30.60
2015,12,05,08,53,38.60
2015,12,05,08,54,43.50
2015,12,05,08,55,40.20
2015,12,05,08,56,29.00
2015,12,05,08,57,48.30
2015,12,05,08,58,54.70
2015,12,05,08,59,45.10
2015,12,05,09,00,45.10
2015,12,05,09,01,46.70
2015,12,05,09,02,40.20
2015,12,05,09,03,35.40
2015,12,05,09,04,35.40
2015,12,05,09,05,37.00
2015,12,05,09,06,24.20
2015,12,05,09,07,48.30
2015,12,05,09,08,41.80
2015,12,05,09,09,48.30
2015,12,05,09,10,45.10
2015,12,05,09,11,48.30
2015,12,05,09,12,45.10
2015,12,05,09,13,49.90
2015,12,05,09,14,45.10
2015,12,05,09,15,45.10
2015,12,05,09,16,45.10
2015,12,05,09,17,43.50
2015,12,05,09,18,35.40
2015,12,05,09,19,51.50
2015,12,05,09,20,37.00
2015,12,05,09,21,40.20
2015,12,05,09,22,43.50
2015,12,05,09,23,57.90
2015,12,05,09,24,41.80
2015,12,05,09,25,51.50
2015,12,05,09,26,41.80
2015,12,05,09,27,67.60
2015,12,05,09,28,43.50
2015,12,05,09,29,59.50
2015,12,05,09,30,43.50
2015,12,05,09,31,41.80
2015,12,05,09,32,38.60
2015,12,05,09,33,46.70
2015,12,05,09,34,32.20
2015,12,05,09,35,48.30
2015,12,05,09,36,54.70
2015,12,05,09,37,54.70
2015,12,05,09,38,53.10
2015,12,05,09,39,40.20
2015,12,05,09,40,40.20
2015,12,05,09,41,41.80
2015,12,05,09,42,38.60
2015,12,05,09,43,48.30
2015,12,05,09,44,38.60
2015,12,05,09,45,38.60
2015,12,05,09,46,25.70
2015,12,05,09,47,30.60
2015,12,05,09,48,46.70
2015,12,05,09,49,51.50
2015,12,05,09,50,35.40
2015,12,05,09,51,30.60
2015,12,05,09,52,25.70
2015,12,05,09,53,30.60
2015,12,05,09,54,33.80
2015,12,05,09,55,37.00
2015,12,05,09,56,53.10
2015,12,05,09,57,46.70
2015,12,05,09,58,37.00
2015,12,05,09,59,37.00
2015,12,05,10,00,33.80
2015,12,05,10,01,59.50
2015,12,05,10,02,40.20
2015,12,05,10,03,37.00
2015,12,05,10,04,46.70
2015,12,05,10,05,48.30
2015,12,05,10,06,45.10
2015,12,05,10,07,38.60
2015,12,05,10,08,43.50
2015,12,05,10,09,35.40
2015,12,05,10,10,51.50
2015,12,05,10,11,37.00
2015,12,05,10,12,37.00
2015,12,05,10,13,43.50
2015,12,05,10,14,37.00
2015,12,05,10,15,40.20
2015,12,05,10,16,53.10
2015,12,05,10,17,46.70
2015,12,05,10,18,45.10
2015,12,05,10,19,56.30
2015,12,05,10,20,75.60
2015,12,05,10,21,38.60
2015,12,05,10,22,51.50
2015,12,05,10,23,40.20
2015,12,05,10,24,43.50
2015,12,05,10,25,43.50
2015,12,05,10,26,46.70
2015,12,05,10,27,46.70
2015,12,05,10,28,38.60
2015,12,05,10,29,48.30
2015,12,05,10,30,45.10
2015,12,05,10,31,33.80
2015,12,05,10,32,53.10
2015,12,05,10,33,32.20
2015,12,05,10,34,38.60
2015,12,05,10,35,49.90
2015,12,05,10,36,40.20
2015,12,05,10,37,41.80
2015,12,05,10,38,30.60
2015,12,05,10,39,45.10
2015,12,05,10,40,48.30
2015,12,05,10,41,54.70
2015,12,05,10,42,49.90
2015,12,05,10,43,40.20
2015,12,05,10,44,46.70
2015,12,05,10,45,33.80
2015,12,05,10,46,45.10
2015,12,05,10,47,46.70
2015,12,05,10,48,30.60
2015,12,05,10,49,43.50
2015,12,05,10,50,32.20
2015,12,05,10,51,38.60
2015,12,05,10,52,25.70
2015,12,05,10,53,45.10
2015,12,05,10,54,33.80
2015,12,05,10,55,40.20
2015,12,05,10,56,49.90
2015,12,05,10,57,30.60
2015,12,05,10,58,24.20
2015,12,05,10,59,48.30
2015,12,05,11,00,40.20
2015,12,05,11,01,41.80
2015,12,05,11,02,37.00
2015,12,05,11,03,37.00
2015,12,05,11,04,37.00
2015,12,05,11,05,43.50
2015,12,05,11,06,45.10
2015,12,05,11,07,37.00
2015,12,05,11,08,54.70
2015,12,05,11,09,51.50
2015,12,05,11,10,38.60
2015,12,05,11,11,35.40
2015,12,05,11,12,43.50
2015,12,05,11,13,45.10
2015,12,05,11,14,41.80
2015,12,05,11,15,48.30
2015,12,05,11,16,37.00
2015,12,05,11,17,51.50
2015,12,05,11,18,53.10
2015,12,05,11,19,40.20
2015,12,05,11,20,48.30
2015,12,05,11,21,56.30
2015,12,05,11,22,53.10
2015,12,05,11,23,46.70
2015,12,05,11,24,45.10
2015,12,05,11,25,41.80
2015,12,05,11,26,25.70
2015,12,05,11,27,37.00
2015,12,05,11,28,41.80
2015,12,05,11,29,54.70
2015,12,05,11,30,56.30
2015,12,05,11,31,38.60
2015,12,05,11,32,45.10
2015,12,05,11,33,30.60
2015,12,05,11,34,38.60
2015,12,05,11,35,43.50
2015,12,05,11,36,37.00
2015,12,05,11,37,49.90
2015,12,05,11,38,30.60
2015,12,05,11,39,53.10
2015,12,05,11,40,53.10
2015,12,05,11,41,30.60
2015,12,05,11,42,33.80
2015,12,05,11,43,46.70
2015,12,05,11,44,32.20
2015,12,05,11,45,57.90
2015,12,05,11,46,29.00
2015,12,05,11,47,33.80
2015,12,05,11,48,17.70
2015,12,05,11,49,25.70
2015,12,05,11,50,29.00
2015,12,05,11,51,24.20
2015,12,05,11,52,48.30
2015,12,05,11,53,49.90
2015,12,05,11,54,35.40
2015,12,05,11,55,45.10
2015,12,05,11,56,32.20
2015,12,05,11,57,35.40
2015,12,05,11,58,43.50
2015,12,05,11,59,24.20
2015,12,05,12,00,27.40
2015,12,05,12,01,56.30
2015,12,05,12,02,43.50
2015,12,05,12,03,46.70
2015,12,05,12,04,38.60
2015,12,05,12,05,37.00
2015,12,05,12,06,37.00
2015,12,05,12,07,35.40
2015,12,05,12,08,45.10
2015,12,05,12,09,29.00
2015,12,05,12,10,37.00
2015,12,05,12,11,43.50
2015,12,05,12,12,29.00
2015,12,05,12,13,38.60
2015,12,05,12,14,40.20
2015,12,05,12,15,22.50
2015,12,05,12,16,40.20
2015,12,05,12,17,43.50
2015,12,05,12,18,33.80
2015,12,05,12,19,43.50
2015,12,05,12,20,41.80
2015,12,05,12,21,30.60
2015,12,05,12,22,33.80
2015,12,05,12,23,45.10
2015,12,05,12,24,51.50
2015,12,05,12,25,37.00
2015,12,05,12,26,33.80
2015,12,05,12,27,29.00
2015,12,05,12,28,32.20
2015,12,05,12,29,37.00
2015,12,05,12,30,38.60
2015,12,05,12,31,37.00
2015,12,05,12,32,54.70
2015,12,05,12,33,33.80
2015,12,05,12,34,37.00
2015,12,05,12,35,43.50
2015,12,05,12,36,38.60
2015,12,05,12,37,41.80
2015,12,05,12,38,46.70
2015,12,05,12,39,29.00
2015,12,05,12,40,35.40
2015,12,05,12,41,45.10
2015,12,05,12,42,37.00
2015,12,05,12,43,40.20
2015,12,05,12,44,32.20
2015,12,05,12,45,30.60
2015,12,05,12,46,43.50
2015,12,05,12,47,35.40
2015,12,05,12,48,40.20
2015,12,05,12,49,40.20
2015,12,05,12,50,38.60
2015,12,05,12,51,37.00
2015,12,05,12,52,40.20
2015,12,05,12,53,35.40
2015,12,05,12,54,41.80
2015,12,05,12,55,37.00
2015,12,05,12,56,38.60
2015,12,05,12,57,35.40
2015,12,05,12,58,43.50
2015,12,05,12,59,38.60
2015,12,05,13,00,32.20
2015,12,05,13,01,56.30
2015,12,05,13,02,41.80
2015,12,05,13,03,43.50
2015,12,05,13,04,46.70
2015,12,05,13,05,54.70
2015,12,05,13,06,41.80
2015,12,05,13,07,51.50
2015,12,05,13,08,37.00
2015,12,05,13,09,33.80
2015,12,05,13,10,35.40
2015,12,05,13,11,43.50
2015,12,05,13,12,49.90
2015,12,05,13,13,40.20
2015,12,05,13,14,38.60
2015,12,05,13,15,40.20
2015,12,05,13,16,46.70
2015,12,05,13,17,33.80
2015,12,05,13,18,37.00
2015,12,05,13,19,41.80
2015,12,05,13,20,48.30
2015,12,05,13,21,54.70
2015,12,05,13,22,54.70
2015,12,05,13,23,49.90
2015,12,05,13,24,45.10
2015,12,05,13,25,46.70
2015,12,05,13,26,37.00
2015,12,05,13,27,46.70
2015,12,05,13,28,33.80
2015,12,05,13,29,35.40
2015,12,05,13,30,45.10
2015,12,05,13,31,59.50
2015,12,05,13,32,35.40
2015,12,05,13,33,41.80
2015,12,05,13,34,53.10
2015,12,05,13,35,32.20
2015,12,05,13,36,41.80
2015,12,05,13,37,41.80
2015,12,05,13,38,33.80
2015,12,05,13,39,49.90
2015,12,05,13,40,30.60
2015,12,05,13,41,38.60
2015,12,05,13,42,38.60
2015,12,05,13,43,38.60
2015,12,05,13,44,37.00
2015,12,05,13,45,37.00
2015,12,05,13,46,41.80
2015,12,05,13,47,41.80
2015,12,05,13,48,29.00
2015,12,05,13,49,38.60
2015,12,05,13,50,27.40
2015,12,05,13,51,29.00
2015,12,05,13,52,45.10
2015,12,05,13,53,45.10
2015,12,05,13,54,40.20
2015,12,05,13,55,30.60
2015,12,05,13,56,48.30
2015,12,05,13,57,30.60
2015,12,05,13,58,43.50
2015,12,05,13,59,35.40
2015,12,05,14,00,37.00
2015,12,05,14,01,41.80
2015,12,05,14,02,37.00
2015,12,05,14,03,49.90
2015,12,05,14,04,35.40
2015,12,05,14,05,45.10
2015,12,05,14,06,38.60
2015,12,05,14,07,59.50
2015,12,05,14,08,59.50
2015,12,05,14,09,53.10
2015,12,05,14,10,46.70
2015,12,05,14,11,45.10
2015,12,05,14,12,45.10
2015,12,05,14,13,49.90
2015,12,05,14,14,56.30
2015,12,05,14,15,54.70
2015,12,05,14,16,45.10
2015,12,05,14,17,46.70
2015,12,05,14,18,43.50
2015,12,05,14,19,45.10
2015,12,05,14,20,30.60
2015,12,05,14,21,43.50
2015,12,05,14,22,37.00
2015,12,05,14,23,37.00
2015,12,05,14,24,30.60
2015,12,05,14,25,37.00
2015,12,05,14,26,48.30
2015,12,05,14,27,54.70
2015,12,05,14,28,43.50
2015,12,05,14,29,40.20
2015,12,05,14,30,41.80
2015,12,05,14,31,33.80
2015,12,05,14,32,45.10
2015,12,05,14,33,48.30
2015,12,05,14,34,32.20
2015,12,05,14,35,43.50
2015,12,05,14,36,37.00
2015,12,05,14,37,51.50
2015,12,05,14,38,30.60
2015,12,05,14,39,38.60
2015,12,05,14,40,46.70
2015,12,05,14,41,40.20
2015,12,05,14,42,48.30
2015,12,05,14,43,33.80
2015,12,05,14,44,45.10
2015,12,05,14,45,33.80
2015,12,05,14,46,32.20
2015,12,05,14,47,33.80
2015,12,05,14,48,38.60
2015,12,05,14,49,33.80
2015,12,05,14,50,54.70
2015,12,05,14,51,51.50
2015,12,05,14,52,40.20
2015,12,05,14,53,38.60
2015,12,05,14,54,35.40
2015,12,05,14,55,32.20
2015,12,05,14,56,43.50
2015,12,05,14,57,32.20
2015,12,05,14,58,48.30
2015,12,05,14,59,54.70
2015,12,05,15,00,40.20
2015,12,05,15,01,40.20
2015,12,05,15,02,46.70
2015,12,05,15,03,40.20
2015,12,05,15,04,46.70
2015,12,05,15,05,53.10
2015,12,05,15,06,29.00
2015,12,05,15,07,38.60
2015,12,05,15,08,38.60
2015,12,05,15,09,20.90
2015,12,05,15,10,48.30
2015,12,05,15,11,37.00
2015,12,05,15,12,41.80
2015,12,05,15,13,48.30
2015,12,05,15,14,37.00
2015,12,05,15,15,46.70
2015,12,05,15,16,33.80
2015,12,05,15,17,45.10
2015,12,05,15,18,38.60
2015,12,05,15,19,30.60
2015,12,05,15,20,37.00
2015,12,05,15,21,35.40
2015,12,05,15,22,38.60
2015,12,05,15,23,41.80
2015,12,05,15,24,37.00
2015,12,05,15,25,49.90
2015,12,05,15,26,48.30
2015,12,05,15,27,35.40
2015,12,05,15,28,45.10
2015,12,05,15,29,38.60
2015,12,05,15,30,49.90
2015,12,05,15,31,37.00
2015,12,05,15,32,45.10
2015,12,05,15,33,35.40
2015,12,05,15,34,38.60
2015,12,05,15,35,35.40
2015,12,05,15,36,40.20
2015,12,05,15,37,45.10
2015,12,05,15,38,33.80
2015,12,05,15,39,30.60
2015,12,05,15,40,48.30
2015,12,05,15,41,38.60
2015,12,05,15,42,43.50
2015,12,05,15,43,33.80
2015,12,05,15,44,30.60
2015,12,05,15,45,49.90
2015,12,05,15,46,35.40
2015,12,05,15,47,56.30
2015,12,05,15,48,59.50
2015,12,05,15,49,33.80
2015,12,05,15,50,38.60
2015,12,05,15,51,48.30
2015,12,05,15,52,33.80
2015,12,05,15,53,35.40
2015,12,05,15,54,32.20
2015,12,05,15,55,38.60
2015,12,05,15,56,43.50
2015,12,05,15,57,29.00
2015,12,05,15,58,32.20
2015,12,05,15,59,37.00
2015,12,05,16,00,43.50
2015,12,05,16,01,46.70
2015,12,05,16,02,38.60
2015,12,05,16,03,37.00
2015,12,05,16,04,35.40
2015,12,05,16,05,20.90
2015,12,05,16,06,54.70
2015,12,05,16,07,45.10
2015,12,05,16,08,40.20
2015,12,05,16,09,54.70
2015,12,05,16,10,48.30
2015,12,05,16,11,48.30
2015,12,05,16,12,54.70
2015,12,05,16,13,40.20
2015,12,05,16,14,45.10
2015,12,05,16,15,46.70
2015,12,05,16,16,35.40
2015,12,05,16,17,45.10
2015,12,05,16,18,40.20
2015,12,05,16,19,32.20
2015,12,05,16,20,35.40
2015,12,05,16,21,30.60
2015,12,05,16,22,54.70
2015,12,05,16,23,33.80
2015,12,05,16,24,30.60
2015,12,05,16,25,38.60
2015,12,05,16,26,40.20
2015,12,05,16,27,37.00
2015,12,05,16,28,33.80
2015,12,05,16,29,30.60
2015,12,05,16,30,35.40
2015,12,05,16,31,35.40
2015,12,05,16,32,45.10
2015,12,05,16,33,49.90
2015,12,05,16,34,49.90
2015,12,05,16,35,35.40
2015,12,05,16,36,29.00
2015,12,05,16,37,49.90
2015,12,05,16,38,38.60
2015,12,05,16,39,40.20
2015,12,05,16,40,40.20
2015,12,05,16,41,45.10
2015,12,05,16,42,32.20
2015,12,05,16,43,37.00
2015,12,05,16,44,37.00
2015,12,05,16,45,30.60
2015,12,05,16,46,38.60
2015,12,05,16,47,25.70
2015,12,05,16,48,33.80
2015,12,05,16,49,43.50
2015,12,05,16,50,40.20
2015,12,05,16,51,41.80
2015,12,05,16,52,46.70
2015,12,05,16,53,45.10
2015,12,05,16,54,45.10
2015,12,05,16,55,35.40
2015,12,05,16,56,45.10
2015,12,05,16,57,38.60
2015,12,05,16,58,38.60
2015,12,05,16,59,46.70
2015,12,05,17,00,40.20
2015,12,05,17,01,33.80
2015,12,05,17,02,46.70
2015,12,05,17,03,43.50
2015,12,05,17,04,37.00
2015,12,05,17,05,41.80
2015,12,05,17,06,37.00
2015,12,05,17,07,43.50
2015,12,05,17,08,40.20
2015,12,05,17,09,33.80
2015,12,05,17,10,33.80
2015,12,05,17,11,40.20
2015,12,05,17,12,29.00
2015,12,05,17,13,45.10
2015,12,05,17,14,38.60
2015,12,05,17,15,40.20
2015,12,05,17,16,38.60
2015,12,05,17,17,48.30
2015,12,05,17,18,45.10
2015,12,05,17,19,40.20
2015,12,05,17,20,46.70
2015,12,05,17,21,43.50
2015,12,05,17,22,40.20
2015,12,05,17,23,45.10
2015,12,05,17,24,32.20
2015,12,05,17,25,37.00
2015,12,05,17,26,41.80
2015,12,05,17,27,37.00
2015,12,05,17,28,43.50
2015,12,05,17,29,40.20
2015,12,05,17,30,35.40
2015,12,05,17,31,45.10
2015,12,05,17,32,29.00
2015,12,05,17,33,24.20
2015,12,05,17,34,32.20
2015,12,05,17,35,49.90
2015,12,05,17,36,35.40
2015,12,05,17,37,33.80
2015,12,05,17,38,41.80
2015,12,05,17,39,48.30
2015,12,05,17,40,40.20
2015,12,05,17,41,30.60
2015,12,05,17,42,32.20
2015,12,05,17,43,54.70
2015,12,05,17,44,51.50
2015,12,05,17,45,40.20
2015,12,05,17,46,35.40
2015,12,05,17,47,45.10
2015,12,05,17,48,33.80
2015,12,05,17,49,67.60
2015,12,05,17,50,46.70
2015,12,05,17,51,53.10
2015,12,05,17,52,38.60
2015,12,05,17,53,53.10
2015,12,05,17,54,29.00
2015,12,05,17,55,32.20
2015,12,05,17,56,48.30
2015,12,05,17,57,32.20
2015,12,05,17,58,37.00
2015,12,05,17,59,35.40
2015,12,05,18,00,29.00
2015,12,05,18,01,37.00
2015,12,05,18,02,48.30
2015,12,05,18,03,41.80
2015,12,05,18,04,37.00
2015,12,05,18,05,35.40
2015,12,05,18,06,27.40
2015,12,05,18,07,35.40
2015,12,05,18,08,40.20
2015,12,05,18,09,48.30
2015,12,05,18,10,48.30
2015,12,05,18,11,41.80
2015,12,05,18,12,45.10
2015,12,05,18,13,41.80
2015,12,05,18,14,32.20
2015,12,05,18,15,40.20
2015,12,05,18,16,40.20
2015,12,05,18,17,33.80
2015,12,05,18,18,48.30
2015,12,05,18,19,53.10
2015,12,05,18,20,32.20
2015,12,05,18,21,33.80
2015,12,05,18,22,43.50
2015,12,05,18,23,33.80
2015,12,05,18,24,43.50
2015,12,05,18,25,35.40
2015,12,05,18,26,32.20
2015,12,05,18,27,32.20
2015,12,05,18,28,40.20
2015,12,05,18,29,35.40
2015,12,05,18,30,40.20
2015,12,05,18,31,35.40
2015,12,05,18,32,49.90
2015,12,05,18,33,37.00
2015,12,05,18,34,37.00
2015,12,05,18,35,35.40
2015,12,05,18,36,22.50
2015,12,05,18,37,38.60
2015,12,05,18,38,49.90
2015,12,05,18,39,38.60
2015,12,05,18,40,30.60
2015,12,05,18,41,43.50
2015,12,05,18,42,46.70
2015,12,05,18,43,45.10
2015,12,05,18,44,46.70
2015,12,05,18,45,46.70
2015,12,05,18,46,30.60
2015,12,05,18,47,35.40
2015,12,05,18,48,32.20
2015,12,05,18,49,32.20
2015,12,05,18,50,33.80
2015,12,05,18,51,41.80
2015,12,05,18,52,33.80
2015,12,05,18,53,48.30
2015,12,05,18,54,25.70
2015,12,05,18,55,24.20
2015,12,05,18,56,32.20
2015,12,05,18,57,46.70
2015,12,05,18,58,40.20
2015,12,05,18,59,30.60
2015,12,05,19,00,41.80
2015,12,05,19,01,32.20
2015,12,05,19,02,27.40
2015,12,05,19,03,30.60
2015,12,05,19,04,29.00